User: anonymous   Login
Location: Newark
(52.2090°N, 4.1550°W)
Time: 11:16:38
(UTC+00:00)
Language:

Vanguard 2 - Orbit

View from above orbital plane
View from above orbital plane
View from above satellite
View from above satellite

Ground track
Ground track

The orbit data is extracted from the following two-line orbital elements,

1    11U 59001A   19261.68212699 +.00000037 +00000-0 +12768-4 0  9997
2    11 032.8694 359.4587 1466562 151.6473 217.2454 11.85608621242599
Epoch (UTC): 18 September 2019 16:22:15
Eccentricity: 0.1466562
inclination: 32.8694°
perigee height: 554 km
apogee height: 2937 km
right ascension of ascending node: 359.4587°
argument of perigee: 151.6473°
revolutions per day: 11.85608621
mean anomaly at epoch: 217.2454°
orbit number at epoch: 24259

The dashed part of the orbit path shows where the satellite is in the earth's shadow,  

DLR